This is the latest recevied weather packets stored in our database for station/object K0CVS. If no packets are shown the sender has not sent any weather packets the latest 10 day(s).
| Time | Temp. | Humidity | Pressure | Rain* | Wind** | Luminosity | Snow |
|---|---|---|---|---|---|---|---|
| 1777494392 | 15.56° C | 48% | 1019.3 hPa | 0 mm | - | 169 W/m² | - |
| 1777494087 | 15.56° C | 48% | 1019.6 hPa | 0 mm | - | 175 W/m² | - |
| 1777493785 | 15.56° C | 48% | 1019.6 hPa | 0 mm | - | 170 W/m² | - |
| 1777493484 | 15.56° C | 47% | 1019.6 hPa | 0 mm | - | 235 W/m² | - |
| 1777493180 | 15.56° C | 51% | 1019.6 hPa | 0 mm | - | 185 W/m² | - |
| 1777492876 | 15° C | 50% | 1019.6 hPa | 0 mm | - | 205 W/m² | - |
| 1777492573 | 15° C | 50% | 1019.7 hPa | 0 mm | - | 164 W/m² | - |
| 1777492269 | 15° C | 50% | 1019.8 hPa | 0 mm | - | 159 W/m² | - |
| 1777491966 | 15.56° C | 50% | 1019.8 hPa | 0 mm | - | 163 W/m² | - |
| 1777491662 | 16.11° C | 48% | 1019.8 hPa | 0 mm | - | 168 W/m² | - |
| 1777491360 | 16.11° C | 51% | 1019.8 hPa | 0 mm | - | 195 W/m² | - |
| 1777491056 | 16.11° C | 49% | 1019.8 hPa | 0 mm | - | 189 W/m² | - |
| 1777490751 | 16.11° C | 50% | 1020.1 hPa | 0 mm | - | 184 W/m² | - |
| 1777490449 | 16.11° C | 48% | 1020 hPa | 0 mm | - | 266 W/m² | - |
| 1777490145 | 16.11° C | 51% | 1020.2 hPa | 0 mm | - | 246 W/m² | - |
| 1777489843 | 15.56° C | 52% | 1020 hPa | 0 mm | - | 392 W/m² | - |
| 1777489540 | 15.56° C | 51% | 1020 hPa | 0 mm | - | 319 W/m² | - |
| 1777489237 | 15.56° C | 49% | 1020.1 hPa | 0 mm | - | 278 W/m² | - |
| 1777488933 | 15.56° C | 49% | 1020.4 hPa | 0 mm | - | 271 W/m² | - |
| 1777488631 | 15.56° C | 51% | 1020.2 hPa | 0 mm | - | 381 W/m² | - |
| 1777488328 | 15.56° C | 52% | 1020.2 hPa | 0 mm | - | 395 W/m² | - |
| 1777488027 | 15.56° C | 52% | 1020.2 hPa | 0 mm | - | 389 W/m² | - |
| 1777487724 | 15.56° C | 51% | 1020.2 hPa | 0 mm | - | 626 W/m² | - |
| 1777487422 | 15.56° C | 50% | 1020.2 hPa | 0 mm | - | 501 W/m² | - |
| 1777487119 | 15.56° C | 51% | 1020.4 hPa | 0 mm | - | 258 W/m² | - |
* Rain latest hour (hover to see other rain measurements)
** Current wind speed in m/s (hover to see current wind gust speed)